DateTimeUTC,F1_A11,F1_S11,BsB_S11,BsG_S11,BsR_S11,BbsB_S11,BbsG_S11,BbsR_S11,BaB_A11,BaG_A11,BaR_A11,Tu_S11,T_S11,Uu_S11,U_S11,P_S11,T1_A11
2021-03-17T19:00:00Z,00040200,20000000,,,,,,,0000.08,0000.00,0000.41,17.4,24.5,03.3,02.1,0651.9,30.9
2021-03-17T19:01:00Z,00040200,20000000,,,,,,,0000.05,0000.09,-000.14,17.4,24.5,03.3,02.1,0651.9,30.9
2021-03-17T19:02:00Z,00040200,20000000,,,,,,,0000.10,-000.28,-000.62,17.4,24.5,03.3,02.1,0651.9,30.9
2021-03-17T19:03:00Z,00040200,60000000,,,,,,,0000.61,0001.09,0000.94,17.4,24.5,03.3,02.1,0651.9,31.0
2021-03-17T19:04:00Z,00040200,40000000,-000.24,0000.47,0000.09,0000.11,0000.27,-000.12,0000.25,0000.10,0000.41,17.5,24.3,03.4,02.2,0652.8,30.9
2021-03-17T19:05:00Z,00040200,00000000,0000.25,0000.25,0000.08,0000.50,0000.14,-000.07,0000.61,0000.43,0000.30,17.5,24.3,03.5,02.3,0652.9,30.9
2021-03-17T19:06:00Z,00040200,00000000,-000.24,0000.12,0000.14,-000.07,0000.08,-000.01,0000.81,0000.87,0000.59,17.5,24.3,03.6,02.4,0652.9,30.9
2021-03-17T19:07:00Z,00040200,00000000,0000.59,0000.22,0000.27,0000.27,0000.34,0000.21,0000.32,0000.11,0000.24,17.5,24.3,03.7,02.4,0652.9,30.9
2021-03-17T19:08:00Z,00040200,00000000,0000.28,0000.50,0000.41,0000.60,0000.17,0000.07,0000.12,0000.35,0000.37,17.5,24.3,03.5,02.3,0652.8,30.9
2021-03-17T19:09:00Z,00040200,00000000,-000.16,0000.22,0000.41,0000.09,0000.10,0000.17,0000.37,0000.15,0000.14,17.5,24.3,03.6,02.4,0652.9,30.9
2021-03-17T19:10:00Z,00040200,00000000,0000.34,0000.27,0000.18,0000.43,0000.26,0000.27,0000.51,0000.38,0000.38,17.5,24.3,03.6,02.4,0652.8,30.9
2021-03-17T19:11:00Z,00040200,00000000,0000.48,0000.28,0000.36,0000.73,0000.03,0000.05,0000.04,0000.31,0000.24,17.5,24.3,03.6,02.4,0652.8,30.9
2021-03-17T19:12:00Z,00040200,00000000,0000.47,0000.46,0000.19,0000.21,-000.00,-000.09,0000.49,0000.33,0000.09,17.5,24.3,03.6,02.4,0652.8,30.9
2021-03-17T19:13:00Z,00040200,00000000,-000.02,0000.22,0000.17,0000.19,0000.00,0000.04,0000.39,0000.42,0000.74,17.5,24.3,03.6,02.3,0652.8,30.9
2021-03-17T19:14:00Z,00040200,00000000,0000.25,0000.60,0000.05,0000.10,0000.18,-000.08,0000.43,0000.68,0000.15,17.5,24.2,03.6,02.4,0652.7,30.9
2021-03-17T19:15:00Z,00040200,00000000,0000.40,0000.29,0000.12,0000.33,-000.04,0000.16,-000.25,-000.37,-000.13,17.5,24.2,03.7,02.4,0652.7,30.9
2021-03-17T19:16:00Z,00040200,00000000,0000.37,0000.42,0000.03,0000.31,-000.06,-000.05,0000.91,0000.78,0001.10,17.5,24.2,03.7,02.4,0652.8,31.0
2021-03-17T19:17:00Z,00040200,00000000,0000.85,0000.32,0000.14,-000.02,0000.13,0000.27,0000.18,0000.47,0000.01,17.4,24.2,03.7,02.5,0652.7,30.9
2021-03-17T19:18:00Z,00040200,00000000,0000.36,0000.49,0000.00,-000.39,0000.10,0000.16,0001.00,0000.53,0000.40,17.5,24.2,03.7,02.4,0652.7,30.9
2021-03-17T19:19:00Z,00040200,00000000,0000.22,0000.25,0000.34,0000.00,0000.11,0000.11,0000.51,0000.43,0000.84,17.5,24.2,03.8,02.5,0652.7,30.9
2021-03-17T19:20:00Z,00040200,00000000,0000.12,0000.17,0000.32,0000.37,0000.05,0000.27,0000.24,0000.34,0000.20,17.5,24.2,04.0,02.6,0652.7,30.9
2021-03-17T19:21:00Z,00040200,00000000,-000.01,0000.13,0000.38,-000.26,0000.08,0000.05,0000.05,0000.47,0000.19,17.5,24.2,03.9,02.6,0652.6,30.9
2021-03-17T19:22:00Z,00040200,00000000,-000.46,0000.16,0000.05,0000.18,-000.01,0000.22,0000.54,0000.06,0000.11,17.5,24.2,03.8,02.5,0652.6,30.9
2021-03-17T19:23:00Z,00040200,00000000,0000.66,0000.43,0000.21,0000.48,0000.09,0000.20,0000.06,-000.17,0000.17,17.5,24.2,03.8,02.5,0652.6,30.9
2021-03-17T19:24:00Z,00040200,00000000,0000.51,0000.21,0000.16,0000.15,0000.08,-000.06,-000.25,0000.39,0000.11,17.5,24.2,03.6,02.4,0652.6,30.9
2021-03-17T19:25:00Z,00040200,00000000,0000.67,0000.17,0000.20,0000.19,0000.16,-000.05,0000.40,0000.07,0000.18,17.4,24.2,03.6,02.4,0652.5,30.9
2021-03-17T19:26:00Z,00040200,00000000,0000.05,-000.04,-000.05,-000.16,0000.05,-000.03,-000.12,0000.17,-000.29,17.4,24.2,03.4,02.3,0652.5,30.9
2021-03-17T19:27:00Z,00040200,00000000,0000.44,0000.14,0000.25,0000.56,0000.17,0000.06,-000.09,-000.23,0000.32,17.4,24.2,03.4,02.2,0652.6,30.9
2021-03-17T19:28:00Z,00040200,00000000,0000.27,0000.29,0000.38,0000.18,0000.09,0000.07,-000.16,0000.07,-000.03,17.4,24.2,03.4,02.2,0652.6,30.9
2021-03-17T19:29:00Z,00040200,00000000,0000.22,0000.23,0000.09,0000.77,0000.04,0000.20,0000.24,-000.01,-000.15,17.4,24.2,03.3,02.2,0652.5,30.9
2021-03-17T19:30:00Z,00040200,00000000,0000.28,0000.27,0000.11,-000.09,-000.12,-000.00,0000.18,-000.18,0000.28,17.4,24.2,03.3,02.2,0652.5,30.9
2021-03-17T19:31:00Z,00040200,00000000,0000.57,0000.05,-000.14,-000.32,0000.21,-000.25,-000.10,0000.01,-000.08,17.4,24.2,03.1,02.1,0652.5,30.9
2021-03-17T19:32:00Z,00040200,00000000,-000.09,0000.34,-000.02,0000.62,0000.13,-000.12,-000.08,0000.39,0000.02,17.4,24.2,03.1,02.0,0652.4,30.9
2021-03-17T19:33:00Z,00040200,00000000,0000.53,0000.49,0000.21,0000.29,0000.03,0000.20,-000.27,-000.57,-000.14,17.4,24.2,02.9,01.9,0652.4,30.9
2021-03-17T19:34:00Z,00040200,00000000,0000.25,0000.47,0000.23,-000.08,0000.28,0000.35,0000.33,0000.28,0000.25,17.4,24.2,03.0,02.0,0652.3,30.9
2021-03-17T19:35:00Z,00040200,00000000,0000.86,0000.27,-000.01,-000.39,0000.24,0000.07,0000.21,0000.00,0000.25,17.4,24.2,03.0,02.0,0652.3,30.9
2021-03-17T19:36:00Z,00040200,00000000,0000.29,0000.17,0000.06,-000.05,-000.12,0000.03,-000.15,-000.19,-000.32,17.4,24.2,03.0,02.0,0652.3,30.9
2021-03-17T19:37:00Z,00040200,00000000,-000.04,0000.22,-000.03,0000.40,-000.03,-000.15,0000.12,0000.17,-000.11,17.4,24.1,02.8,01.9,0652.3,30.9
2021-03-17T19:38:00Z,00040200,00000000,0000.75,0000.47,-000.05,-000.08,0000.09,0000.07,-000.48,-000.08,0000.48,17.4,24.1,02.9,01.9,0652.3,30.9
2021-03-17T19:39:00Z,00040200,00000000,0000.02,0000.35,0000.10,0000.17,0000.15,0000.02,0001.08,0000.54,0000.66,17.4,24.1,03.0,02.0,0652.2,30.9
2021-03-17T19:40:00Z,00040200,00000000,-000.23,-000.07,-000.03,-000.06,0000.14,0000.08,-000.10,0000.39,-000.25,17.5,24.1,03.0,02.0,0652.2,30.9
2021-03-17T19:41:00Z,00040200,00000000,0000.29,0000.35,0000.30,0000.27,-000.22,0000.31,0000.35,0000.15,0000.37,17.5,24.2,03.0,02.0,0652.2,30.9
2021-03-17T19:42:00Z,00040200,00000000,0000.17,0000.19,0000.19,-000.01,0000.06,-000.13,-000.16,-000.18,-000.00,17.6,24.2,03.0,02.0,0652.1,30.9
2021-03-17T19:43:00Z,00040200,00000000,0000.13,0000.53,0000.15,-000.13,0000.36,-000.06,0000.02,0000.19,-000.29,17.6,24.2,03.0,02.0,0652.1,30.9
2021-03-17T19:44:00Z,00040200,00000000,0000.08,0000.43,0000.39,-000.56,0000.04,0000.14,0000.33,0000.14,0000.68,17.6,24.2,02.9,01.9,0652.1,30.9
2021-03-17T19:45:00Z,00040200,00000000,0001.27,0000.06,0000.06,-000.25,0000.12,0000.22,-000.03,0000.08,-000.18,17.6,24.2,02.9,01.9,0652.1,30.9
2021-03-17T19:46:00Z,00040200,00000000,0000.19,0000.34,0000.06,0000.42,0000.10,0000.17,0000.08,-000.02,0000.05,17.6,24.2,02.8,01.9,0652.0,31.0
2021-03-17T19:47:00Z,00040200,00000000,0000.22,0000.30,-000.01,0000.04,0000.03,-000.01,0000.15,0000.36,-000.11,17.6,24.2,02.9,01.9,0651.9,30.9
2021-03-17T19:48:00Z,00040200,00000000,-000.00,0000.19,0000.22,-000.22,-000.01,0000.15,-000.14,-000.25,0000.38,17.6,24.2,02.7,01.8,0652.0,30.9
2021-03-17T19:49:00Z,00040200,00000000,0000.65,0000.35,0000.06,0000.44,0000.03,0000.05,0000.19,0000.43,0000.08,17.6,24.2,02.7,01.8,0652.0,30.9
2021-03-17T19:50:00Z,00040200,00000000,-000.00,0000.42,0000.12,-000.03,-000.03,0000.21,-000.14,-000.12,-000.08,17.6,24.2,02.9,01.9,0652.0,30.9
2021-03-17T19:51:00Z,00040200,00000000,0000.45,0000.07,-000.11,0000.37,0000.21,0000.01,0000.61,0000.26,0000.12,17.6,24.2,02.9,01.9,0651.9,30.9
2021-03-17T19:52:00Z,00040200,00000000,0000.15,0000.28,0000.20,0000.16,0000.20,0000.32,0000.24,-000.25,-000.02,17.5,24.2,02.8,01.8,0651.9,30.9
2021-03-17T19:53:00Z,00040200,00000000,0000.26,0000.28,0000.03,-000.17,0000.10,0000.13,-000.36,-000.18,0000.14,17.5,24.2,02.8,01.9,0651.9,30.9
2021-03-17T19:54:00Z,00040200,00000000,0000.09,0000.04,0000.18,-000.05,0000.03,0000.00,0000.45,0000.75,0000.11,17.6,24.2,02.8,01.9,0652.0,30.9
2021-03-17T19:55:00Z,00040200,00000000,-000.21,0000.18,0000.11,0000.04,0000.08,-000.02,0000.02,-000.25,-000.16,17.6,24.2,02.8,01.9,0651.9,30.9
2021-03-17T19:56:00Z,00040200,00000000,0000.36,0000.18,0000.27,-000.05,0000.19,-000.10,-000.23,0000.30,0000.53,17.7,24.2,02.7,01.8,0651.9,30.9
2021-03-17T19:57:00Z,00040200,40000000,,,,,,,0001.44,0001.38,0000.69,17.7,24.2,03.1,02.1,0652.1,31.0
2021-03-17T19:58:00Z,00040200,60000000,,,,,,,-000.88,-001.10,-000.48,17.4,24.4,03.1,02.0,0651.0,30.9
2021-03-17T19:59:00Z,00040200,20000000,,,,,,,0000.02,0000.05,0000.07,17.4,24.5,02.9,01.9,0651.0,31.0
